Hauptseite
METAR-TAF:

METAR-TAF

Flughäfen :

Frontone, Italien

Breite: 43-31N, Länge: 012-44E, Höhe: 570 m

Beobachtung

Neuester Wetterbericht von vor 24 Minuten, um 18:55 UTC
Windstille
Temperatur 24°C
Luftfeuchtigkeit 61%
Luftdruck 1017 hPa
Sichtweite 10 km oder mehr
Aufgelockert bewölkt in der Höhe von 3400 ft

METAR: LIVF 191855Z 00000KT 9999 SCT034 24/16 Q1017 RMK SCT MON LIB VAL NIL VIS MIN 9999

Zeit: 21:19 (19:19 UTC)


TAF: fehlend

Wetterbeobachtungen und Prognosen von mehr als 4000 Flughäfen (METAR und TAF Bericht).

Die verfügbaren Stationen werden durch gelbe und rote Markierungen auf der Karte dargestellt.

Führen Sie die Maus auf sie, um den Namen der Station zu sehen.

Darauf klicken, um die Beobachtung von Wetterbeobachtungen und Prognosen zu sehen.

Um die Karte zu ändern : klicken Sie auf den grünen Tasten mit einem schwarzen Kreuz Zum Vergrößern, auf den grünen Button mit einem Gedankenstrich zu verkleinern, oder auf die grünen Pfeile für benachbarte Karten.


METAR-TAF: